McCook, NE

1:36 AM CDT on May 30, 2017 (GMT -0500)
McCook Municipal

Weather History for KMCK - November, 2013

Change the Weather History Date:

Monday, November 25, 2013

  Actual Average Record
Temperature  
Mean Temperature 34 °F 34 °F  
Max Temperature 48 °F 47 °F 77 °F (1960)
Min Temperature 20 °F 20 °F 0 °F (1993)
Degree Days  
Heating Degree Days 32    
Moisture  
Dew Point 21 °F    
Average Humidity 76    
Maximum Humidity 100    
Minimum Humidity 30    
Precipitation  
Precipitation T in 0.03 in 0.77 in (1987)
Month to date precipitation 0.48 0.82  
Year to date precipitation 12.61 21.76  
Sea Level Pressure  
Sea Level Pressure 30.19 in    
Wind  
Wind Speed 6 mph (West)    
Max Wind Speed 20 mph    
Max Gust Speed 23 mph    
Visibility 6 miles    
Events Fog , Snow    
T = Trace of Precipitation, MM = Missing Value Source: NWS Daily Summary

Daily Weather History Graph

Daily Weather History Graph

Search for Another Location

Airport or City:

Trip Planner

Search our weather history database for the weather conditions in past years. The results will help you decide how hot, cold, wet, or windy it might be!

Date:

Astronomy

Nov. 25, 2013 Rise Set
Actual Time 7:39 AM CST 5:19 PM CST
Civil Twilight 7:09 AM CST 5:48 PM CST
Nautical Twilight 6:36 AM CST 6:22 PM CST
Astronomical Twilight 6:03 AM CST 6:54 PM CST
Moon No Moon Rise 12:57 PM CST (11/25)
Length of Visible Light 10h 39m
Length of Day
9h 39m
Waning Gibbous, 51% of the Moon is Illuminated
Nov 25
Waning Gibbous
Nov 25
Last Quarter
Dec 2
New
Dec 9
First Quarter
Dec 17
Full

Hourly Weather History & Observations

Time (CST) Temp. Windchill Dew Point Humidity Pressure Visibility Wind Dir Wind Speed Gust Speed Precip Events Conditions
12:53 AM 26.1 °F - 21.9 °F 84% 30.12 in 10.0 mi Calm Calm - N/A   Clear
1:53 AM 24.1 °F 18.2 °F 21.0 °F 88% 30.12 in 7.0 mi South 4.6 mph - N/A   Clear
2:14 AM 24.8 °F 20.5 °F 21.2 °F 86% 30.06 in 6.0 mi SSW 3.5 mph - N/A   Scattered Clouds
2:40 AM 24.8 °F 20.5 °F 21.2 °F 86% 30.06 in 6.0 mi SSW 3.5 mph - N/A   Mostly Cloudy
2:50 AM 24.8 °F 17.9 °F 23.0 °F 93% 30.06 in 6.0 mi SSW 5.8 mph - N/A   Mostly Cloudy
2:53 AM 25.0 °F 19.3 °F 23.0 °F 92% 30.13 in 5.0 mi South 4.6 mph - N/A   Overcast
3:53 AM 27.0 °F 20.5 °F 25.0 °F 92% 30.12 in 4.0 mi SSW 5.8 mph - N/A   Overcast
4:50 AM 26.6 °F 20.0 °F 24.8 °F 93% 30.06 in 2.5 mi SW 5.8 mph - 0.00 in Snow Light Snow
4:53 AM 26.1 °F 18.4 °F 25.0 °F 96% 30.13 in 2.5 mi SSW 6.9 mph - 0.00 in Snow Light Snow
5:15 AM 26.6 °F 20.0 °F 24.8 °F 93% 30.06 in 1.5 mi South 5.8 mph - 0.00 in   Overcast
5:26 AM 26.6 °F 19.1 °F 24.8 °F 93% 30.06 in 2.5 mi SW 6.9 mph - 0.00 in   Overcast
5:37 AM 26.6 °F 21.2 °F 24.8 °F 93% 30.07 in 1.2 mi WSW 4.6 mph - 0.00 in   Overcast
5:53 AM 27.0 °F 21.6 °F 25.0 °F 92% 30.15 in 1.0 mi WSW 4.6 mph - 0.00 in   Overcast
6:12 AM 26.6 °F 21.2 °F 24.8 °F 93% 30.08 in 2.0 mi WSW 4.6 mph - N/A   Overcast
6:19 AM 26.6 °F 20.0 °F 24.8 °F 93% 30.08 in 1.8 mi WSW 5.8 mph - N/A   Overcast
6:43 AM 24.8 °F 19.1 °F 24.8 °F 100% 30.08 in 0.5 mi WSW 4.6 mph - N/A Fog Light Freezing Fog
6:53 AM 25.0 °F 19.3 °F 24.1 °F 96% 30.18 in 0.5 mi West 4.6 mph - N/A Fog Light Freezing Fog
7:53 AM 24.1 °F 18.2 °F 23.0 °F 96% 30.21 in 0.2 mi West 4.6 mph - N/A Fog Light Freezing Fog
8:35 AM 19.4 °F 11.5 °F 19.4 °F 100% 30.15 in 2.0 mi WNW 5.8 mph - N/A   Mostly Cloudy
8:39 AM 19.4 °F 12.8 °F 17.6 °F 93% 30.15 in 4.0 mi West 4.6 mph - N/A   Scattered Clouds
8:53 AM 21.0 °F - 19.0 °F 92% 30.24 in 5.0 mi Calm Calm - N/A   Partly Cloudy
9:53 AM 23.0 °F 17.0 °F 21.0 °F 92% 30.27 in 6.0 mi WNW 4.6 mph - N/A   Clear
10:53 AM 33.1 °F 25.5 °F 26.1 °F 75% 30.27 in 10.0 mi North 9.2 mph - N/A   Partly Cloudy
11:53 AM 43.0 °F 35.1 °F 25.0 °F 49% 30.24 in 10.0 mi North 17.3 mph 23.0 mph N/A   Overcast
12:53 PM 46.0 °F 38.5 °F 18.0 °F 33% 30.24 in 10.0 mi North 19.6 mph - N/A   Overcast
1:53 PM 46.0 °F 38.5 °F 19.9 °F 35% 30.24 in 10.0 mi North 19.6 mph - N/A   Overcast
2:53 PM 46.0 °F 39.3 °F 18.0 °F 33% 30.23 in 10.0 mi North 16.1 mph - N/A   Mostly Cloudy
3:53 PM 46.9 °F - 17.1 °F 30% 30.24 in 10.0 mi North 13.8 mph - N/A   Mostly Cloudy
4:53 PM 44.1 °F 39.5 °F 17.1 °F 34% 30.27 in 10.0 mi North 8.1 mph - N/A   Partly Cloudy
5:53 PM 35.1 °F 29.3 °F 16.0 °F 46% 30.30 in 10.0 mi NW 6.9 mph - N/A   Clear
6:53 PM 30.0 °F 20.5 °F 16.0 °F 56% 30.32 in 10.0 mi NW 11.5 mph - N/A   Clear
7:53 PM 28.9 °F 21.1 °F 15.1 °F 56% 30.34 in 10.0 mi NW 8.1 mph - N/A   Clear
8:53 PM 27.0 °F 19.5 °F 15.1 °F 61% 30.37 in 10.0 mi NW 6.9 mph - N/A   Clear
9:53 PM 28.0 °F 18.1 °F 16.0 °F 61% 30.37 in 10.0 mi NW 11.5 mph - N/A   Clear
10:53 PM 26.1 °F 16.8 °F 16.0 °F 66% 30.35 in 10.0 mi NW 9.2 mph - N/A   Clear
11:53 PM 27.0 °F 16.7 °F 16.0 °F 63% 30.35 in 10.0 mi NW 11.5 mph - N/A   Clear